GPS BIIR-5 (PRN 22)

Last updated on Wed Jun 24 2026 00:03:27 GMT+0000 (Coordinated Universal Time)

1 26407U 00040A 26173.82081596 .00000046 00000+0 00000+0 0 9999 2 26407 54.8508 214.9384 0120968 302.5203 88.9508 2.00557766190065
UTC large
Height (km)
Speed (km/s)
/
Latitude / Longitude
Inclination (degrees)
Orbital Period (minutes)
Azimuth
Elevation
Range (km)
Doppler Factor

Next 0 passes for location: London (51.5072 / 0.1276)

No passes found over London.
GPS BIIR-5 (PRN 22)